Aeroporto :
LOGIN :

Iscrizione | Disclaimer

   EN    FR    IT 

 










Sommario :    VFR   VFR Marginale   IFR   IFR Intensivo   IFR Molto Intensivo
Visibilità : 
Base nubi : 
>= 8 km
>= 3000ft
5 / 8 km
1000 / 3000 ft
1500m / 5 km
500 / 1000 ft
800 / 1500m
200 / 500 ft
< 800m
< 200 ft
Simboli :   Temporali  Nebbia  Neve Forte  Precipitazioni Forti  Vento > 20 kt
SIGMETs :   Varie  Temporali  Ghiacco  Turbolenza  Onda orograficha  Ceneri Vulcaniche







- Altitudine del aeroporto : 7 ft
- Codice IATA : VCE


LIPZ - Marco Polo Int. Venezia

ULTIMO METAR :
  • 230620Z 07008KT CAVOK 04/M04 Q1034 NOSIG

METARs OBSOLETI :
  • 230550Z 07009KT CAVOK 04/M03 Q1034 NOSIG
  • 230520Z 07010KT CAVOK 05/M03 Q1033 NOSIG
  • 230450Z 09013KT CAVOK 05/M04 Q1033 NOSIG
  • 230420Z 09009KT CAVOK 05/M02 Q1033 NOSIG
  • 230350Z 09012KT CAVOK 06/M02 Q1032 NOSIG

TAF TAF LIPZ
Valido dal 23 a 06 ore il 24 a 12 ore UTC


230500Z 2306/2412 09012KT CAVOK
BECMG 2402/2404 VRB05KT
Nessun NOTAM noto per questo aeroporto.



MetMap, La meteo Aeronautica in un colpo d'occhio ! - Copyright ORBIFLY Dicembre 2007 - Disclaimer

ORBIFLY MET'MAP TEAM :

Programmazione e sviluppo : Alexandra Zaïnal
Concezione e sviluppo : Baudouin d'Aumeries
Co-Programmazione e sviluppo : Marc-Olivier Méhu
Supporto tecnico e logistico : Manuel Goepfert
Aiuto per la traduzione : Arnaldo La Scala

Contatto : metmap@orbifly.com




FONTI E CREDITI :

   NOAA